This demonstration page uses our WeatherBlox Daily Observations layout. Learn more.

40.92945, -100.16068

Hourly Observations for December 26, 2018

Temp ( °F °C ) Dew Point ( °F °C ) Humidity (%) Winds ( mph kmh ) Pressure ( in mb ) Visibility ( mi km ) Precip ( " mm )
12:15 am 00:15 Cloudy with Fog 33 0.3 32 -0.1 97 97 E 7 11 30.21 1023 0.25 0.402335 0 0
12:35 am 00:35 Cloudy with Fog 33 0.4 32 0 97 97 E 7 11 30.21 1023 0.25 0.402335 0 0
12:55 am 00:55 Cloudy with Fog 33 0.6 32 0 96 96 E 7 11 30.21 1023 0.5 0.80467 0 0
1:15 am 01:15 Cloudy with Fog 33 0.7 32 0.1 96 96 ESE 10 17 30.21 1023 0.5 0.80467 0 0
1:35 am 01:35 Cloudy with Rain 34 1 33 0.3 95 95 E 7 11 30.21 1023 0.5 0.80467 0 0
1:55 am 01:55 Cloudy with Light Rain 33 0.7 32 0.1 96 96 E 9 15 30.21 1023 0.75 1.207005 0.01 0.254
2:15 am 02:15 Cloudy with Light Rain 33 0.8 32 0.2 96 96 E 7 11 30.21 1023 1.25 2.011675 0.01 0.254
2:35 am 02:35 Cloudy with Light Rain 33 0.8 32 0.2 96 96 E 9 15 30.21 1023 1.75 2.816345 0.03 0.762
2:55 am 02:55 Cloudy with Rain 34 0.9 33 0.3 96 96 E 10 17 30.18 1022 2 3.21868 0.05 1.27
3:15 am 03:15 Cloudy with Light Drizzle 34 1 33 0.3 95 95 E 12 19 30.18 1022 3 4.82802 0 0
3:35 am 03:35 Cloudy with Mist and Fog 34 1 33 0.5 97 97 E 14 22 30.12 1020 4 6.43736 0 0
3:55 am 03:55 Cloudy with Light Drizzle 34 1 33 0.5 97 97 E 14 22 30.12 1020 4 6.43736 0 0
4:15 am 04:15 Cloudy with Mist and Fog 34 1.1 33 0.5 96 96 E 13 20 30.12 1020 4 6.43736 0 0
4:35 am 04:35 Cloudy with Mist and Fog 34 1.2 33 0.6 96 96 E 10 17 30.12 1020 3 4.82802 0 0
4:55 am 04:55 Cloudy with Light Drizzle 34 1.1 33 0.5 96 96 E 13 20 30.12 1020 3 4.82802 0 0
5:15 am 05:15 Cloudy with Light Rain 34 1.1 33 0.5 96 96 E 10 17 30.12 1020 2 3.21868 0 0
5:35 am 05:35 Cloudy with Light Rain 34 1.1 33 0.5 96 96 E 12 19 30.12 1020 1.75 2.816345 0.02 0.508
5:55 am 05:55 Cloudy with Light Rain 34 1 33 0.4 96 96 E 10 17 30.09 1019 2 3.21868 0.04 1.016
6:15 am 06:15 Cloudy with Light Drizzle 34 1 33 0.4 96 96 E 8 13 30.09 1019 3 4.82802 0.01 0.254
6:35 am 06:35 Cloudy with Light Rain 34 1.1 33 0.5 96 96 E 8 13 30.09 1019 2.5 4.02335 0.01 0.254
6:55 am 06:55 Cloudy with Light Rain 34 1.1 33 0.5 96 96 E 9 15 30.09 1019 2.5 4.02335 0.03 0.762
7:15 am 07:15 Cloudy with Light Rain 34 1.1 33 0.5 96 96 E 9 15 30.09 1019 3 4.82802 0.03 0.762
7:35 am 07:35 Cloudy with Light Drizzle 34 1.1 33 0.5 96 96 E 7 11 30.09 1019 7 11.26538 0.04 1.016
7:55 am 07:55 Cloudy with Rain 34 1.1 33 0.5 96 96 ESE 3 6 30.09 1019 5 8.0467 0.05 1.27
8:15 am 08:15 Cloudy with Light Rain 34 1.1 33 0.3 94 94 E 14 22 30.06 1018 3 4.82802 0.02 0.508
8:35 am 08:35 Cloudy with Rain 34 1.1 33 0.5 96 96 E 6 9 30.09 1019 3 4.82802 0.04 1.016
8:55 am 08:55 Cloudy with Rain 34 1.2 33 0.5 95 95 E 10 17 30.09 1019 1.75 2.816345 0.05 1.27
9:15 am 09:15 Cloudy with Light Drizzle 34 1.2 33 0.5 95 95 E 9 15 30.06 1018 2 3.21868 0 0
9:35 am 09:35 Cloudy with Mist and Fog 34 1.3 33 0.6 95 95 E 12 19 30.06 1018 3 4.82802 0 0
9:55 am 09:55 Cloudy with Mist and Fog 35 1.5 33 0.7 94 94 E 9 15 30.06 1018 1.5 2.41401 0 0
10:15 am 10:15 Cloudy with Mist and Fog 35 1.5 34 0.9 96 96 E 10 17 30.06 1018 1.75 2.816345 0 0
10:35 am 10:35 Cloudy with Mist and Fog 35 1.7 34 1 95 95 E 9 15 30.03 1017 1.25 2.011675 0 0
10:55 am 10:55 Cloudy with Mist and Fog 35 1.8 34 1.1 95 95 E 10 17 30.03 1017 1.25 2.011675 0 0
11:15 am 11:15 Cloudy with Mist and Fog 35 1.8 34 1.1 95 95 E 9 15 30 1016 1.25 2.011675 0 0
11:35 am 11:35 Cloudy with Mist and Fog 35 1.8 34 1.1 95 95 E 9 15 30 1016 0.75 1.207005 0 0
11:55 am 11:55 Cloudy with Mist and Fog 36 2 34 1.2 95 95 E 8 13 29.97 1015 1 1.60934 0 0
12:15 pm 12:15 Cloudy with Mist and Fog 36 2 34 1.2 95 95 E 10 17 29.94 1014 1 1.60934 0 0
12:35 pm 12:35 Cloudy with Mist and Fog 36 2 34 1.3 95 95 E 9 15 29.88 1012 1.25 2.011675 0 0
12:55 pm 12:55 Cloudy with Mist and Fog 36 2 34 1.3 95 95 E 8 13 29.88 1012 1.25 2.011675 0 0
1:15 pm 13:15 Cloudy with Drizzle 36 2.1 35 1.5 96 96 E 7 11 29.85 1011 0.75 1.207005 0 0
1:35 pm 13:35 Cloudy with Drizzle 36 2.2 35 1.5 95 95 E 7 11 29.85 1011 0.75 1.207005 0.01 0.254
1:55 pm 13:55 Cloudy with Light Rain 36 2.2 35 1.6 96 96 E 5 7 29.85 1011 1 1.60934 0.03 0.762
2:15 pm 14:15 Cloudy with Light Rain 36 2.3 35 1.7 96 96 E 5 7 29.85 1011 1.75 2.816345 0.05 1.27
2:35 pm 14:35 Cloudy with Rain 36 2.2 35 1.6 96 96 NE 3 6 29.85 1011 2.5 4.02335 0.09 2.286
2:55 pm 14:55 Cloudy with Rain 36 2.2 35 1.6 96 96 ENE 3 6 29.85 1011 2 3.21868 0.14 3.556
3:15 pm 15:15 Cloudy with Light Rain 36 2.2 35 1.6 96 96 NNE 3 6 29.85 1011 1.75 2.816345 0.03 0.762
3:35 pm 15:35 Cloudy with Light Rain 36 2.3 35 1.7 96 96 Calm 29.85 1011 1.5 2.41401 0.09 2.286
3:55 pm 15:55 Cloudy with Light Rain 36 2.3 35 1.7 96 96 NNE 3 6 29.85 1011 1.5 2.41401 0.16 4.064
4:15 pm 16:15 Cloudy with Light Rain 36 2.3 35 1.7 96 96 NNE 3 6 29.83 1010 2 3.21868 0.05 1.27
4:35 pm 16:35 Cloudy with Light Rain 36 2.1 35 1.5 96 96 NNE 5 7 29.83 1010 2.5 4.02335 0.09 2.286
4:55 pm 16:55 Cloudy with Light Rain 36 2.1 35 1.5 96 96 N 3 6 29.83 1010 4 6.43736 0.14 3.556
5:15 pm 17:15 Cloudy with Rain 36 2 35 1.5 97 97 N 7 11 29.83 1010 4 6.43736 0.03 0.762
5:35 pm 17:35 Cloudy with Light Rain 36 2 34 1.2 95 95 NNW 8 13 29.83 1010 4 6.43736 0.07 1.778
5:55 pm 17:55 Cloudy with Light Rain 36 2 35 1.5 97 97 N 8 13 29.83 1010 3 4.82802 0.11 2.794
6:15 pm 18:15 Cloudy with Light Rain 36 2 35 1.5 97 97 NNE 9 15 29.8 1009 5 8.0467 0.01 0.254
6:35 pm 18:35 Cloudy with Light Rain 36 2.1 35 1.5 96 96 NNE 7 11 29.83 1010 7 11.26538 0.02 0.508
6:55 pm 18:55 Cloudy with Light Rain 36 2.2 35 1.6 96 96 NNE 8 13 29.8 1009 5 8.0467 0.05 1.27
7:15 pm 19:15 Cloudy with Light Rain 36 2.2 35 1.6 96 96 N 8 13 29.8 1009 3 4.82802 0.04 1.016
7:35 pm 19:35 Cloudy with Light Rain 36 2.2 35 1.6 96 96 N 13 20 29.8 1009 5 8.0467 0.07 1.778
7:55 pm 19:55 Cloudy with Light Rain 36 2.1 35 1.5 96 96 N 10 17 29.8 1009 7 11.26538 0.09 2.286
8:15 pm 20:15 Cloudy with Rain 36 2.1 35 1.5 96 96 N 10 17 29.8 1009 10 16.0934 0 0
8:35 pm 20:35 Cloudy with Light Rain 36 2 34 1.3 95 95 NNW 13 20 29.8 1009 5 8.0467 0.02 0.508
8:55 pm 20:55 Cloudy with Rain 36 2 34 1.3 95 95 NNW 15 24 29.8 1009 10 16.0934 0.02 0.508
9:15 pm 21:15 Cloudy with Light Rain 35 1.9 34 1.2 95 95 NNW 16 26 29.8 1009 7 11.26538 0.01 0.254
9:35 pm 21:35 Cloudy with Light Rain 35 1.9 34 1.1 95 95 N 17 28 29.77 1008 5 8.0467 0.02 0.508
9:55 pm 21:55 Cloudy with Light Rain 36 2 34 1.1 94 94 N 15 24 29.77 1008 7 11.26538 0.04 1.016
10:15 pm 22:15 Cloudy with Light Drizzle 36 2 34 1.1 94 94 N 14 22 29.77 1008 10 16.0934 0 0
10:35 pm 22:35 Cloudy with Light Drizzle 36 2.1 34 1 93 93 N 15 24 29.77 1008 10 16.0934 0 0
10:55 pm 22:55 Cloudy with Light Drizzle 36 2.2 34 1.1 93 93 N 14 22 29.77 1008 10 16.0934 0 0
11:15 pm 23:15 Cloudy 36 2.2 34 1 92 92 N 21 33 29.77 1008 10 16.0934 0 0
11:35 pm 23:35 Cloudy 36 2 33 0.6 91 91 N 21 33 29.77 1008 10 16.0934 0 0
11:55 pm 23:55 Cloudy with Light Rain 35 1.6 33 0.5 93 93 N 18 30 29.77 1008 4 6.43736 0 0

Powered by AerisWeather